Regional Weather Roundup
Issued by NWS

Home | Current Version | Previous Version | Graphics & Text | Print | Product List | Glossary On
Versions: 1 2 3 4 5 6 7 8 9 10 11 12 13 14 15 16 17 18 19 20 21 22 23 24 25 26 27 28 29 30 31 32 33 34 35 36 37 38 39 40 41 42 43 44 45 46 47 48 49 50
000
ASUS43 KMKX 232300
RWRWI

WISCONSIN REGIONAL WEATHER ROUNDUP
NATIONAL WEATHER SERVICE MILWAUKEE/SULLIVAN WI
600 PM CDT WED AUG 23 2017

NOTE: "FAIR" INDICATES FEW OR NO CLOUDS BELOW 12,000 FEET WITH NO
SIGNIFICANT WEATHER AND/OR OBSTRUCTIONS TO VISIBILITY.

WIZ001-002-006>008-014>016-023>028-240000-
NORTHWEST WISCONSIN

CITY           SKY/WX    TMP DP  RH WIND       PRES   REMARKS
SUPERIOR ARPT    N/A     66  50  57 CALM      30.05S
ASHLAND        SUNNY     64  49  57 NE3       30.07S
HAYWARD        MOSUNNY   65  48  54 N3        30.06S
SIREN          SUNNY     69  47  45 CALM      30.06S
CUMBERLAND     MOSUNNY   66  45  45 N3        30.07S
RICE LAKE      SUNNY     68  49  49 N6        30.07F
CHETEK         MOSUNNY   68  49  50 N5        30.06S
LADYSMITH      SUNNY     65  48  53 N7        30.08S
EAU CLAIRE     NOT AVBL
MENOMONIE      MOSUNNY   71  48  44 NW7       30.05S
NEW RICHMOND   PTSUNNY   71  48  43 NW9       30.05F
OSCEOLA        MOSUNNY   72  49  45 NW6       30.07S
$$

WIZ003>005-009-010-017-018-240000-
NORTH CENTRAL WISCONSIN

CITY           SKY/WX    TMP DP  RH WIND       PRES   REMARKS
MANITOWISH WTR CLOUDY    58  42  55 N5        30.07S
ARBOR VITAE    SUNNY     62  43  50 N12       30.06S
WOODRUFF       SUNNY     62  43  50 N12       30.06S
RHINELANDER    SUNNY     63  42  46 N8        30.06R
EAGLE RIVER    SUNNY     60  40  47 NW9       30.06R
LAND O LAKES   MOSUNNY   59  40  48 N8        30.08R
PHILLIPS       SUNNY     64  47  53 N7        30.05S
TOMAHAWK         N/A     64  45  49 NW6       30.05S
MEDFORD        PTSUNNY   65  47  51 NW9       30.05S
MERRILL        NOT AVBL
$$

WIZ029-030-035-036-043>047-240000-
CENTRAL WISCONSIN

CITY           SKY/WX    TMP DP  RH WIND       PRES   REMARKS
WAUSAU         SUNNY     68  45  43 NW7       30.02S
MOSINEE        PTSUNNY   66  48  52 MISG      30.04S
MARSHFIELD     SUNNY     68  46  45 NW10      30.04S
STEVENS POINT  MOSUNNY   68  47  46 NW7       30.03S
WAUPACA        SUNNY     73  45  36 NW7       30.01S
WAUTOMA        SUNNY     71  49  45 NW7       30.02S
WISC RAPIDS    MOSUNNY   70  49  47 NW10      30.04S
CAMP DOUGLAS   NOT AVBL
$$

WIZ011>013-019>022-031-037>040-048>050-240000-
NORTHEAST WISCONSIN

CITY           SKY/WX    TMP DP  RH WIND       PRES   REMARKS
ANTIGO         MOSUNNY   62  47  59 N7        30.04S
SHAWANO        SUNNY     72  44  37 NW9       30.00S
OCONTO         CLOUDY    69  53  56 SE7       29.99S
STURGEON BAY   PTSUNNY   65  51  60 NE3       30.01S
GREEN BAY      CLOUDY    68  54  60 NW6       30.00R
MANITOWOC      NOT AVBL
APPLETON       MOSUNNY   72  43  35 W14       30.00R
CLINTONVILLE   MOSUNNY   70  43  37 NW6       30.01S
OSHKOSH        SUNNY     70  51  51 NW7       30.00S
$$

WIZ032>034-041-042-053>061-240000-
SOUTHWEST WISCONSIN

CITY           SKY/WX    TMP DP  RH WIND       PRES   REMARKS
LA CROSSE      MOSUNNY   76  53  44 NW12      30.02F
SPARTA         SUNNY     72  50  45 N12       30.05S
VIROQUA        PTSUNNY   71  54  54 NW8       30.05S
BOSCOBEL       SUNNY     76  50  40 N7        30.03S
PRAIRIE DU CHI SUNNY     76  45  33 NW8       30.03S
PLATTEVILLE    PTSUNNY   73  53  49 NW10      30.04F
$$

WIZ056-057-062-063-064-067-068-240000-
SOUTH CENTRAL WISCONSIN

CITY           SKY/WX    TMP DP  RH WIND       PRES   REMARKS
REEDSBURG      MOSUNNY   72  48  42 NW10      30.03S
BARABOO/DELLS  SUNNY     70  47  44 NW6       30.03S
LONE ROCK      NOT AVBL
MINERAL POINT  MOSUNNY   73  52  46 NW7       30.04S
MADISON        PTSUNNY   73  53  49 NW8       30.02S
MIDDLETON      MOSUNNY   73  51  45 NW6       30.03S
WATERTOWN      SUNNY     71  52  50 NW12      30.01S
MONROE         MOSUNNY   70  52  52 NW6       30.03F
JANESVILLE     MOSUNNY   73  52  46 NW12      30.01S
$$

WIZ051-052-058>065-066-070>072-240000-
SOUTHEAST WISCONSIN

CITY           SKY/WX    TMP DP  RH WIND       PRES   REMARKS
MILWAUKEE      PTSUNNY   70  55  59 S10       30.00F
WAUKESHA       PTSUNNY   68  50  52 NW9       30.02F
MILWAUKEE/TIMM MOSUNNY   72  43  35 NW9       30.01S
RACINE         PTSUNNY   69  56  62 SE6       30.03S
KENOSHA        MOSUNNY   72  55  55 CALM      30.01F
FOND DU LAC    SUNNY     71  48  43 NW6       30.01S
SHEBOYGAN      MOSUNNY   71  50  47 VRB6      30.00S
WEST BEND      SUNNY     68  48  49 N6        30.01S
JUNEAU         SUNNY     69  50  49 NW6       30.02F
$$

LSZ147-162-240000-
LAKE SUPERIOR

STATION/POSITION TIME  TEMP    WIND        PRES    WAVE
                       AIR SEA DIR/SP/G            HT/PER
                 (UTC) (F)     (DEG/KT/KT) (MB)    (FT/S)
W MID LAKE BUOY  2150   60 60  230/  8/ 10 1017.7S   1/ 3
DEVILS ISLAND    2200   62     150/  5/  8 1018.1F
PORT WING        2140   91      20/  3/  4 1017.9F
SAXON HARBOR     2230   64      50/  5/  6 1018.3R
$$

LMZ867-665-643>646-240000-
LAKE MICHIGAN

STATION/POSITION TIME  TEMP    WIND        PRES    WAVE
                       AIR SEA DIR/SP/G            HT/PER
                 (UTC) (F)     (DEG/KT/KT) (MB)    (FT/S)
S GREEN BAY BUOY 2230   68 72  140/  4/  4 1015.7R
N MID LAKE BUOY  2150   62 67   80/ 10/ 12 1016.5R   2/ 4
NORTHPORT PIER   2240   67     360/  7/ 10 1015.9R
KEWAUNEE LAKESHO 2230   65     160/  8/  9 1015.4R
SHEBOYGAN LAKESH 2200   66     130/  9/  9 1015.9S
PORT WASHINGTON  2240   69     120/  8/  9 1016.6F
ATWATER BUOY     2109   68 71  140/  8/ 10 1016.4F
MILWAUKEE LAKESH 2230   67     130/  9/ 10   N/A
S MID LAKE BUOY  2150   66 71   10/  4/  6 1016.5F   2/ 5
KENOSHA   LAKESH 2200   69      90/  6/  7 1016.3
$$

TC  - TEMPERATURE IN CELSIUS
VSB - VISIBILITY IN STATUTE MILES
WCI - WIND CHILL INDEX
HX  - HEAT INDEX





USA.gov is the U.S. government's official web portal to all federal, state and local government web resources and services.